{"data":{"norad_id":65499,"epoch":"2026-05-24T20:00:29.194272Z","epoch_age_seconds":99717,"freshness":"FRESH","line1":"1 65499U 25198H   26144.83367123  .00023149  00000+0  79108-3 0  9994","line2":"2 65499  53.1604 277.6289 0001005  88.3264 271.7851 15.30207331 40271","mean_motion":15.30207331,"eccentricity":0.0001005,"inclination_deg":53.1604,"raan_deg":277.6289,"arg_perigee_deg":88.3264,"mean_anomaly_deg":271.7851,"bstar":0.00079108,"rev_number":4027,"period_min":94.104894861466,"perigee_km":474.504420779,"apogee_km":475.88194014527,"semimajor_km":6853.3301804621,"source":"CELESTRAK","updated_at":"2026-05-25T13:38:20.840913Z"}}